Los Alamos, NM

11:36 AM MDT on July 22, 2017 (GMT -0600)
Los Alamos

Weather History for KLAM - November, 2012

Change the Weather History Date:

Saturday, November 17, 2012

  Actual Average Record
Temperature  
Mean Temperature 45 °F -  
Max Temperature 52 °F 47 °F 64 °F (1975)
Min Temperature 38 °F 26 °F 10 °F (1980)
Degree Days  
Heating Degree Days 20    
Moisture  
Dew Point 19 °F    
Average Humidity 35    
Maximum Humidity 46    
Minimum Humidity 26    
Precipitation  
Precipitation 0.00 in - - ()
Sea Level Pressure  
Sea Level Pressure 30.26 in    
Wind  
Wind Speed 3 mph (SSW)    
Max Wind Speed 10 mph    
Max Gust Speed -    
Visibility 10 miles    
Events      
Averages and records for this station are not official NWS values.
T = Trace of Precipitation, MM = Missing Value Source: NWS Daily Summary

Daily Weather History Graph

Daily Weather History Graph

Search for Another Location

Airport or City:

Trip Planner

Search our weather history database for the weather conditions in past years. The results will help you decide how hot, cold, wet, or windy it might be!

Date:

Astronomy

Nov. 17, 2012 Rise Set
Actual Time 6:43 AM MST 4:56 PM MST
Civil Twilight 6:16 AM MST 5:23 PM MST
Nautical Twilight 5:45 AM MST 5:54 PM MST
Astronomical Twilight 5:15 AM MST 6:24 PM MST
Moon 10:30 AM MST (11/17) 9:08 PM MST (11/17)
Length of Visible Light 11h 07m
Length of Day
10h 12m
Waxing Crescent, 21% of the Moon is Illuminated
Nov 17
Waxing Crescent
Nov 20
First Quarter
Nov 28
Full
Dec 6
Last Quarter
Dec 13
New

Hourly Weather History & Observations

Time (MST) Temp. Windchill Dew Point Humidity Pressure Visibility Wind Dir Wind Speed Gust Speed Precip Events Conditions
12:15 AM 46.0 °F 44.8 °F 13.8 °F 27% 30.30 in 10.0 mi SSE 3.5 mph - N/A   Clear
12:35 AM 46.8 °F - 14.0 °F 27% 30.29 in 10.0 mi Calm Calm - N/A   Clear
12:55 AM 46.8 °F - 14.0 °F 27% 30.29 in 10.0 mi Calm Calm - N/A   Clear
1:15 AM 46.4 °F - 14.0 °F 27% 30.29 in 10.0 mi Calm Calm - N/A   Clear
1:35 AM 46.2 °F - 14.4 °F 28% 30.29 in 10.0 mi Calm Calm - N/A   Clear
1:55 AM 46.2 °F - 14.5 °F 28% 30.29 in 10.0 mi Calm Calm - N/A   Clear
2:15 AM 46.4 °F 42.9 °F 14.0 °F 27% 30.29 in 10.0 mi South 6.9 mph - N/A   Clear
2:35 AM 44.6 °F 42.2 °F 14.7 °F 30% 30.29 in 10.0 mi SW 4.6 mph - N/A   Clear
2:55 AM 45.7 °F 43.4 °F 14.4 °F 28% 30.28 in 10.0 mi South 4.6 mph - N/A   Clear
3:15 AM 45.5 °F 41.3 °F 14.4 °F 29% 30.28 in 10.0 mi South 8.1 mph - N/A   Clear
3:35 AM 44.1 °F 41.5 °F 14.4 °F 30% 30.28 in 10.0 mi South 4.6 mph - N/A   Clear
3:55 AM 44.2 °F - 14.7 °F 30% 30.27 in 10.0 mi Calm Calm - N/A   Clear
4:15 AM 39.2 °F - 15.4 °F 38% 30.28 in 10.0 mi Calm Calm - N/A   Clear
4:35 AM 38.1 °F - 15.3 °F 39% 30.28 in 10.0 mi Calm Calm - N/A   Clear
4:55 AM 38.7 °F - 15.4 °F 39% 30.28 in 10.0 mi Calm Calm - N/A   Clear
5:15 AM 39.6 °F - 14.9 °F 37% 30.28 in 10.0 mi Calm Calm - N/A   Clear
5:35 AM 39.0 °F - 15.4 °F 38% 30.29 in 10.0 mi Calm Calm - N/A   Clear
5:55 AM 40.5 °F - 14.9 °F 35% 30.29 in 10.0 mi Calm Calm - N/A   Clear
6:15 AM 40.6 °F - 14.9 °F 35% 30.30 in 10.0 mi Calm Calm - N/A   Clear
6:35 AM 40.1 °F - 15.4 °F 37% 30.30 in 10.0 mi Calm Calm - N/A   Clear
6:55 AM 39.9 °F - 15.6 °F 37% 30.31 in 10.0 mi Calm Calm - N/A   Clear
7:15 AM 40.3 °F - 15.6 °F 37% 30.31 in 10.0 mi Calm Calm - N/A   Clear
7:35 AM 40.8 °F - 16.2 °F 37% 30.31 in 10.0 mi Calm Calm - N/A   Clear
7:55 AM 40.1 °F - 16.3 °F 38% 30.31 in 10.0 mi Calm Calm - N/A   Clear
8:15 AM 40.6 °F - 16.5 °F 38% 30.31 in 10.0 mi Calm Calm - N/A   Clear
8:35 AM 40.3 °F - 16.7 °F 39% 30.32 in 10.0 mi Calm Calm - N/A   Clear
8:55 AM 40.3 °F - 17.1 °F 39% 30.32 in 10.0 mi Calm Calm - N/A   Clear
9:15 AM 40.8 °F - 16.9 °F 38% 30.33 in 10.0 mi Calm Calm - N/A   Clear
9:35 AM 42.1 °F - 16.3 °F 35% 30.32 in 10.0 mi Calm Calm - N/A   Clear
10:55 AM 47.5 °F - 17.4 °F 30% 30.31 in 10.0 mi Calm Calm - N/A   Clear
11:15 AM 48.2 °F - 18.0 °F 30% 30.30 in 10.0 mi Calm Calm - N/A   Clear
11:35 AM 49.3 °F - 18.9 °F 30% 30.29 in 10.0 mi Calm Calm - N/A   Clear
11:55 AM 50.4 °F - 18.5 °F 28% 30.29 in 10.0 mi SE 5.8 mph - N/A   Clear
12:15 PM 50.9 °F - 18.7 °F 28% 30.27 in 10.0 mi Calm Calm - N/A   Clear
12:35 PM 51.8 °F - 20.7 °F 30% 30.27 in 10.0 mi Calm Calm - N/A   Clear
12:55 PM 52.5 °F - 21.0 °F 29% 30.27 in 10.0 mi SSE 5.8 mph - N/A   Clear
1:15 PM 52.0 °F - 20.7 °F 29% 30.25 in 10.0 mi SSE 5.8 mph - N/A   Clear
1:35 PM 51.8 °F - 21.0 °F 30% 30.25 in 10.0 mi SSE 6.9 mph - N/A   Clear
1:55 PM 51.8 °F - 21.2 °F 30% 30.24 in 10.0 mi South 4.6 mph - N/A   Clear
2:15 PM 51.6 °F - 21.7 °F 31% 30.24 in 10.0 mi South 5.8 mph - N/A   Clear
2:35 PM 52.0 °F - 19.0 °F 27% 30.23 in 10.0 mi South 4.6 mph - N/A   Clear
2:55 PM 51.4 °F - 17.2 °F 26% 30.23 in 10.0 mi South 6.9 mph - N/A   Clear
3:15 PM 51.1 °F - 17.4 °F 26% 30.23 in 10.0 mi SSE 6.9 mph - N/A   Clear
3:35 PM 50.9 °F - 18.3 °F 28% 30.23 in 10.0 mi South 5.8 mph - N/A   Clear
3:55 PM 50.2 °F - 18.9 °F 29% 30.23 in 10.0 mi South 8.1 mph - N/A   Clear
4:15 PM 49.5 °F - 19.4 °F 31% 30.22 in 10.0 mi South 6.9 mph - N/A   Clear
4:35 PM 49.1 °F - 19.2 °F 31% 30.22 in 10.0 mi South 8.1 mph - N/A   Clear
4:55 PM 48.4 °F - 19.4 °F 32% 30.22 in 10.0 mi SSW 6.9 mph - N/A   Clear
5:15 PM 48.4 °F - 19.8 °F 32% 30.22 in 10.0 mi SSW 9.2 mph - N/A   Clear
5:35 PM 47.8 °F - 21.9 °F 36% 30.22 in 10.0 mi SW 8.1 mph - N/A   Clear
5:55 PM 48.6 °F - 25.2 °F 40% 30.22 in 10.0 mi SSW 4.6 mph - N/A   Clear
6:15 PM 47.7 °F - 25.5 °F 42% 30.22 in 10.0 mi SSW 9.2 mph - N/A   Clear
6:35 PM 47.5 °F - 25.3 °F 42% 30.23 in 10.0 mi SW 6.9 mph - N/A   Clear
6:55 PM 47.5 °F - 25.5 °F 42% 30.23 in 10.0 mi SW 5.8 mph - N/A   Clear
7:15 PM 47.3 °F - 25.2 °F 42% 30.23 in 10.0 mi SW 9.2 mph - N/A   Scattered Clouds
7:35 PM 48.4 °F - 25.3 °F 41% 30.23 in 10.0 mi WSW 10.4 mph - N/A   Mostly Cloudy
7:55 PM 48.4 °F - 25.2 °F 40% 30.23 in 10.0 mi SW 8.1 mph - N/A   Scattered Clouds
8:15 PM 47.8 °F - 24.8 °F 41% 30.23 in 10.0 mi WSW 6.9 mph - N/A   Clear
8:35 PM 47.5 °F - 25.0 °F 41% 30.23 in 10.0 mi SSW 6.9 mph - N/A   Clear
8:55 PM 47.3 °F - 25.3 °F 42% 30.23 in 10.0 mi SSW 6.9 mph - N/A   Clear
9:15 PM 47.7 °F - 25.3 °F 42% 30.22 in 10.0 mi SSW 8.1 mph - N/A   Clear
9:35 PM 46.9 °F - 25.3 °F 43% 30.22 in 10.0 mi SSW 8.1 mph - N/A   Clear
9:55 PM 46.4 °F 42.4 °F 25.3 °F 44% 30.22 in 10.0 mi SSW 8.1 mph - N/A   Clear
10:15 PM 45.9 °F 41.2 °F 25.3 °F 45% 30.22 in 10.0 mi SSW 9.2 mph - N/A   Clear
10:35 PM 45.5 °F 41.3 °F 25.5 °F 46% 30.21 in 10.0 mi SSW 8.1 mph - N/A   Clear
10:55 PM 45.7 °F 41.5 °F 25.0 °F 44% 30.22 in 10.0 mi SSW 8.1 mph - N/A   Clear
11:15 PM 45.1 °F 40.8 °F 25.3 °F 46% 30.22 in 10.0 mi South 8.1 mph - N/A   Clear
11:35 PM 44.4 °F 41.2 °F 25.0 °F 46% 30.22 in 10.0 mi South 5.8 mph - N/A   Clear
11:55 PM 44.1 °F 40.8 °F 24.4 °F 46% 30.22 in 10.0 mi SSW 5.8 mph - N/A   Clear